This is the latest recevied weather packets stored in our database for station/object K6GMW. If no packets are shown the sender has not sent any weather packets the latest 10 day(s).
| Time | Temp. | Humidity | Pressure | Rain* | Wind** | Luminosity | Snow |
|---|---|---|---|---|---|---|---|
| 1778201405 | 18.33° C | 80% | 1016.2 hPa | 0 mm | - | 6 W/m² | - |
| 1778201101 | 18.89° C | 77% | 1015.9 hPa | 0 mm | - | 10 W/m² | - |
| 1778200798 | 18.89° C | 75% | 1016.1 hPa | 0 mm | - | 15 W/m² | - |
| 1778200494 | 18.89° C | 75% | 1016.2 hPa | 0 mm | - | 20 W/m² | - |
| 1778200192 | 19.44° C | 74% | 1016.4 hPa | 0 mm | - | 28 W/m² | - |
| 1778199888 | 19.44° C | 76% | 1016.2 hPa | 0 mm | - | 30 W/m² | - |
| 1778199584 | 20° C | 74% | 1016.7 hPa | 0 mm | - | 34 W/m² | - |
| 1778199281 | 20° C | 72% | 1016.5 hPa | 0 mm | - | 45 W/m² | - |
| 1778198977 | 20° C | 71% | 1016.7 hPa | 0 mm | - | 48 W/m² | - |
| 1778198673 | 20.56° C | 70% | 1016.4 hPa | 0 mm | - | 49 W/m² | - |
| 1778198370 | 20.56° C | 68% | 1016.5 hPa | 0 mm | - | 61 W/m² | - |
| 1778198067 | 20.56° C | 68% | 1016.5 hPa | 0 mm | - | 66 W/m² | - |
| 1778197764 | 21.11° C | 65% | 1016.3 hPa | 0 mm | - | 79 W/m² | - |
| 1778197461 | 21.11° C | 64% | 1016.6 hPa | 0 mm | - | 86 W/m² | - |
| 1778197157 | 21.67° C | 67% | 1016.5 hPa | 0 mm | - | 96 W/m² | - |
| 1778196855 | 21.11° C | 64% | 1016.6 hPa | 0 mm | - | 147 W/m² | - |
| 1778196553 | 21.67° C | 64% | 1016.7 hPa | 0 mm | - | 144 W/m² | - |
| 1778196249 | 21.67° C | 63% | 1016.6 hPa | 0 mm | - | 146 W/m² | - |
| 1778195947 | 21.67° C | 62% | 1016.7 hPa | 0 mm | - | 160 W/m² | - |
| 1778195643 | 21.67° C | 63% | 1016.6 hPa | 0 mm | - | 189 W/m² | - |
| 1778195339 | 21.67° C | 61% | 1016.4 hPa | 0 mm | - | 236 W/m² | - |
| 1778195037 | 22.22° C | 59% | 1016.4 hPa | 0 mm | - | 269 W/m² | - |
| 1778194737 | 22.22° C | 60% | 1016.4 hPa | 0 mm | - | 248 W/m² | - |
| 1778194433 | 22.22° C | 60% | 1016.4 hPa | 0 mm | - | 240 W/m² | - |
| 1778194129 | 21.67° C | 63% | 1016.4 hPa | 0 mm | - | 218 W/m² | - |
* Rain latest hour (hover to see other rain measurements)
** Current wind speed in m/s (hover to see current wind gust speed)